This is the latest recevied weather packets stored in our database for station/object KC9GSD. If no packets are shown the sender has not sent any weather packets the latest 10 day(s).
| Time | Temp. | Humidity | Pressure | Rain* | Wind** | Luminosity | Snow |
|---|---|---|---|---|---|---|---|
| 1777550867 | 13.89° C | 91% | 1012.9 hPa | 0 mm | - | 84 W/m² | - |
| 1777550259 | 13.89° C | 93% | 1012.7 hPa | 0 mm | - | 72 W/m² | - |
| 1777549348 | 13.89° C | 95% | 1012.3 hPa | 0 mm | - | 52 W/m² | - |
| 1777548136 | 13.89° C | 97% | 1012 hPa | 0 mm | - | 17 W/m² | - |
| 1777547832 | 13.33° C | 97% | 1011.9 hPa | 0 mm | - | 15 W/m² | - |
| 1777547528 | 13.33° C | 97% | 1011.6 hPa | 0 mm | - | 10 W/m² | - |
| 1777546923 | 13.33° C | 97% | 1011.8 hPa | 0 mm | - | 5 W/m² | - |
| 1777546014 | 13.33° C | 97% | 1011.7 hPa | 0 mm | - | 0 W/m² | - |
| 1777545407 | 13.33° C | 96% | 1011.9 hPa | 0 mm | - | 0 W/m² | - |
| 1777545103 | 13.89° C | 96% | 1011.7 hPa | 0 mm | - | 0 W/m² | - |
| 1777544800 | 13.89° C | 97% | 1011.8 hPa | 0 mm | - | 0 W/m² | - |
| 1777544496 | 13.89° C | 96% | 1011.7 hPa | 0 mm | - | 0 W/m² | - |
| 1777544193 | 13.89° C | 97% | 1011.6 hPa | 0 mm | - | 0 W/m² | - |
| 1777543890 | 13.89° C | 97% | 1011.7 hPa | 0 mm | - | 0 W/m² | - |
| 1777543587 | 13.89° C | 97% | 1011.6 hPa | 0 mm | - | 0 W/m² | - |
| 1777543283 | 13.89° C | 97% | 1011.8 hPa | 0 mm | - | 0 W/m² | - |
| 1777542978 | 13.89° C | 96% | 1011.6 hPa | 0 mm | - | 0 W/m² | - |
| 1777542675 | 13.89° C | 96% | 1011.6 hPa | 1.78 mm | - | 0 W/m² | - |
| 1777542371 | 13.89° C | 96% | 1011.7 hPa | 4.83 mm | - | 0 W/m² | - |
| 1777541766 | 13.89° C | 96% | 1011.3 hPa | 1.27 mm | - | 0 W/m² | - |
| 1777541462 | 13.89° C | 96% | 1011.3 hPa | 3.05 mm | - | 0 W/m² | - |
| 1777541158 | 13.89° C | 96% | 1011.5 hPa | 3.56 mm | - | 0 W/m² | - |
| 1777540855 | 13.89° C | 96% | 1011.4 hPa | 3.05 mm | - | 0 W/m² | - |
| 1777540553 | 13.89° C | 96% | 1011.5 hPa | 4.32 mm | - | 0 W/m² | - |
| 1777540249 | 13.89° C | 96% | 1011.3 hPa | 4.83 mm | - | 0 W/m² | - |
* Rain latest hour (hover to see other rain measurements)
** Current wind speed in m/s (hover to see current wind gust speed)